Weather in Tabashino

Russia / Mari El Republic     56°58′39″N   47°48′07″E
temp.,
°C
wind,
m/s
gust,
m/s
humid.,
%
clouds,
%
prec.,
mm/h
press.,
hPa
HPBL,
m
3 march, wed
wed300:00−3w499795 0.3 999411
03:00−3wnw4109698 1.0 999483
06:00−5nw51195100 1.1 1000626
09:00−5nnw61091100 1.6 1002705
12:00−5nw6988100 0.1 1003680
15:00−5wnw6988100 0.2 1004784
18:00−6wnw5987100 0.1 1004707
21:00−7wsw41093100 0.1 1004355
4 march, thu
thu400:00−6sw5119599 0.7 1000570
03:00−3wsw5119399 1.4 998653
06:00−4sw51196100 0.3 995593
09:00−2wsw61195100 1.1 994850
12:00−1wsw61186100 0.5 9911196
15:00−1wnw6117678 0.9 9911202
18:00−5w5138823 0.1 994501
21:00−7nw379250 0.1 997161
5 march, fri
fri500:00−12nw23960 0.0 99845
03:00−14nnw239413 0.0 100024
06:00−16nnw23910 0.0 100126
09:00−14n35900 0.0 1003227
12:00−10nw35850 0.0 1004521
15:00−10nw468848 0.0 1006630
18:00−13wnw339596 0.0 100862
21:00−14w239788 0.1 101035
6 march, sat
sat600:00−15wsw339746 0.0 101150
03:00−15sw339764 0.1 101279
06:00−15sw349772 0.0 101199
09:00−12ssw359185 0.1 1010259
12:00−8ssw3592100 0.1 1010430
15:00−7sw2493100 0.6 1009419
18:00−9nw3796100 0.5 1009272
21:00−13nw3895100 0.8 1010280
7 march, sun
sun700:00−19wnw339856 0.0 101044
03:00−20w2310043 0.0 101027
06:00−21sw339952 0.0 100956
09:00−16s479547 0.0 1007229
12:00−11s61193100 0.0 1004479
15:00−9s71293100 0.8 1000984
18:00−8s71393100 1.1 996942
21:00−6ssw61394100 1.9 992906